Total_Precipitation_Accumulation
2.95 3.26 3.13 3.15 2.86 2.98 3.33 3.66 3.68 3.94 4.28 4.19 3.70 3.42 3.49 3.43 3.16 2.97 3.14 3.39 3.46 3.44 3.78 4.05 3.72 3.44 3.33 2.98 2.71 2.57 2.45 2.36 2.19 1.96 1.80 1.69 1.57 1.38 1.21 1.17 1.00 0.89 0.83
3.22 3.51 3.38 3.24 2.89 2.87 3.22 3.55 3.59 3.95 4.12 4.22 3.69 3.35 3.35 3.31 3.02 2.75 2.81 3.31 3.38 3.28 3.46 3.89 4.05 3.92 3.70 3.38 3.05 2.78 2.55 2.39 2.31 2.14 1.88 1.72 1.62 1.51 1.46 1.31 1.15 1.05 0.92
3.46 3.77 3.69 3.25 2.97 3.05 3.25 3.22 3.36 3.89 3.86 3.79 3.64 3.52 3.44 3.26 2.95 2.87 2.81 3.00 2.89 3.00 3.29 3.49 3.80 4.07 4.12 3.99 3.76 3.37 3.04 2.63 2.36 2.16 1.91 1.72 1.62 1.49 1.47 1.40 1.28 1.19 1.06
3.07 3.47 3.24 2.81 2.87 3.06 3.25 3.28 3.23 3.64 3.81 3.85 3.89 3.70 3.51 3.29 2.90 2.80 2.78 2.77 2.76 2.50 2.81 3.17 3.57 3.92 4.34 4.58 4.66 4.51 4.08 3.34 2.76 2.43 2.11 1.90 1.75 1.55 1.38 1.33 1.33 1.28 1.13
2.18 2.60 2.60 2.52 2.54 2.82 2.90 2.56 2.79 3.13 3.37 3.56 3.30 3.20 2.87 2.67 2.58 2.40 2.35 2.26 2.47 2.62 2.78 2.84 3.23 3.55 4.19 5.04 5.57 5.52 5.04 4.16 3.36 2.91 2.58 2.31 2.14 1.86 1.54 1.35 1.33 1.27 1.15
2.02 2.30 2.35 2.20 2.15 2.38 2.50 2.65 2.97 3.04 2.91 3.00 2.62 2.63 2.60 2.36 2.33 2.28 2.08 2.08 2.21 2.20 2.50 2.81 3.11 2.93 3.45 4.40 5.16 5.42 5.30 4.87 4.06 3.42 3.07 2.91 2.82 2.42 1.90 1.63 1.52 1.38 1.24
2.20 2.51 2.31 2.34 2.18 2.22 2.29 2.36 2.61 2.73 2.51 2.70 3.07 2.88 2.55 2.27 2.21 2.10 2.03 2.12 2.12 2.27 2.50 2.87 3.11 3.17 3.05 3.07 3.53 4.30 4.96 5.26 5.04 4.37 3.72 3.33 3.21 2.80 2.22 1.95 1.74 1.57 1.52
2.13 2.08 2.29 2.13 2.07 2.31 2.27 2.35 2.58 2.55 2.30 2.47 2.96 3.17 2.91 2.83 2.30 1.71 1.90 2.03 2.10 2.38 2.45 2.44 2.68 3.18 3.19 3.35 2.71 3.07 4.24 5.02 5.53 5.53 4.84 4.05 3.62 3.12 2.57 2.34 2.07 1.86 1.76
1.78 1.90 1.95 1.91 2.05 1.98 2.17 2.32 2.44 2.65 2.61 2.38 2.38 2.85 2.85 2.80 2.53 1.98 1.69 1.80 2.11 2.42 2.41 2.45 2.46 2.78 3.07 3.45 3.27 2.77 3.06 3.68 4.75 5.74 5.80 4.94 3.90 3.16 2.82 2.71 2.60 2.35 2.13
1.77 1.81 1.83 1.98 2.03 1.89 2.17 1.92 2.10 2.48 2.67 2.42 2.41 2.33 2.37 2.55 2.62 2.44 2.07 1.77 1.93 2.07 2.20 2.18 2.30 2.62 2.90 3.16 3.21 2.60 2.26 2.55 3.49 4.75 5.60 5.58 4.77 3.76 3.22 3.22 3.40 3.21 2.82
1.83 1.66 1.83 2.09 2.16 1.99 2.02 2.07 2.33 2.33 2.37 2.32 2.29 2.25 2.39 2.46 2.28 2.34 2.33 2.13 1.96 1.64 1.78 2.08 2.29 2.44 2.62 2.89 3.18 2.84 2.63 2.44 2.54 3.09 3.83 4.57 4.95 4.57 4.11 4.03 4.33 4.49 4.25
1.85 1.76 1.91 2.15 2.16 2.15 2.11 2.10 2.14 2.15 2.29 2.40 2.34 2.20 2.30 2.42 2.42 2.53 2.29 2.19 2.20 1.88 1.97 2.26 2.35 2.44 2.42 2.58 2.60 2.59 2.52 2.46 2.41 2.40 2.63 3.09 3.74 4.22 4.34 4.49 4.89 5.27 5.38
1.67 1.80 1.89 2.12 2.11 2.10 2.01 2.20 2.23 2.13 2.26 2.32 2.28 2.25 2.18 2.11 2.24 2.42 2.44 2.25 2.22 2.10 2.31 2.28 2.29 2.33 2.28 2.55 2.68 2.62 2.26 2.28 2.16 2.08 2.15 2.33 2.67 3.22 3.76 4.13 4.58 5.08 5.46
1.40 1.52 1.68 1.75 1.84 1.89 1.83 2.27 2.14 2.17 2.29 2.16 2.05 2.41 2.28 1.98 2.16 2.29 2.52 2.78 2.62 2.45 2.51 2.40 2.34 2.32 2.50 2.63 2.70 2.62 2.24 2.28 2.12 1.94 1.81 1.78 1.88 2.13 2.55 2.92 3.28 3.65 4.09
1.45 1.50 1.58 1.81 1.95 2.01 2.07 2.33 2.24 2.21 2.39 2.18 2.14 2.33 2.25 2.15 2.13 2.11 2.49 2.89 3.09 2.85 2.67 2.55 2.31 2.19 2.32 2.44 2.50 2.14 1.97 2.14 2.04 1.88 1.74 1.63 1.62 1.71 1.87 2.01 2.11 2.22 2.40
1.59 1.72 1.81 1.96 2.07 2.04 2.07 2.28 2.23 2.33 2.44 2.32 2.29 2.33 2.25 2.19 2.28 2.20 2.35 2.65 2.91 3.10 2.88 2.39 2.23 2.13 2.14 1.96 2.06 1.81 1.84 2.05 1.90 1.74 1.66 1.62 1.60 1.60 1.61 1.63 1.68 1.71 1.77
1.72 1.79 1.90 2.04 2.06 2.13 2.26 2.36 2.19 2.30 2.43 2.60 2.47 2.46 2.49 2.59 2.54 2.42 2.52 2.63 2.81 3.08 2.99 2.46 2.35 2.35 2.20 1.97 1.92 1.81 1.76 1.84 1.87 1.95 1.76 1.65 1.54 1.45 1.43 1.44 1.47 1.54 1.60
2.03 1.98 2.04 2.10 1.98 2.03 2.25 2.33 2.32 2.36 2.40 2.45 2.63 2.88 2.77 2.81 2.75 2.59 2.70 2.66 2.73 3.03 2.92 2.64 2.63 2.63 2.56 2.30 2.14 1.94 1.73 1.72 1.85 2.06 1.81 1.66 1.58 1.50 1.46 1.44 1.42 1.39 1.41
2.28 2.35 2.35 2.20 2.11 2.09 2.16 2.27 2.41 2.42 2.42 2.48 2.63 2.70 2.76 2.97 2.84 2.73 2.64 2.60 2.70 2.86 2.98 2.74 2.66 2.85 2.70 2.41 2.26 1.99 1.79 1.87 1.65 1.77 1.75 1.68 1.66 1.59 1.52 1.43 1.42 1.38 1.34
2.32 2.47 2.43 2.37 2.30 2.18 2.05 2.03 2.11 2.21 2.37 2.53 2.56 2.47 2.57 2.83 2.89 2.88 2.65 2.63 2.77 2.88 2.92 2.81 2.70 2.83 2.84 2.72 2.57 2.33 2.21 2.03 1.83 1.70 1.76 1.67 1.66 1.61 1.52 1.39 1.35 1.35 1.37
2.28 2.44 2.48 2.51 2.48 2.29 2.00 2.07 2.21 2.21 2.38 2.40 2.33 2.21 2.21 2.47 2.71 2.77 2.49 2.51 2.66 2.68 2.68 2.70 2.67 2.76 2.83 2.98 2.83 2.53 2.30 2.14 1.90 1.72 1.72 1.57 1.54 1.46 1.48 1.46 1.39 1.31 1.22
2.67 2.68 2.57 2.51 2.44 2.07 2.19 2.28 2.29 2.29 2.39 2.38 2.31 2.21 2.09 2.07 2.09 2.24 2.36 2.49 2.62 2.60 2.60 2.75 2.90 2.97 2.98 3.04 3.03 2.82 2.54 2.28 2.04 1.80 1.88 1.83 1.72 1.67 1.53 1.40 1.42 1.33 1.24
3.05 3.03 2.87 2.69 2.52 2.45 2.41 2.21 2.19 2.04 2.05 2.11 2.19 2.19 1.90 1.71 1.82 1.74 1.97 2.17 2.28 2.36 2.42 2.63 2.79 2.87 3.01 3.15 3.22 2.95 2.76 2.54 2.25 2.03 2.03 1.83 1.72 1.69 1.60 1.55 1.63 1.43 1.34
2.99 3.01 2.89 2.74 2.61 2.51 2.43 2.15 2.11 1.88 1.85 1.87 1.92 1.95 1.89 1.75 1.74 1.88 1.89 1.82 1.77 1.86 2.06 2.08 2.20 2.49 2.75 2.97 3.15 3.05 2.97 2.65 2.31 2.08 2.02 1.83 1.65 1.61 1.56 1.59 1.69 1.55 1.42
2.76 2.64 2.53 2.51 2.49 2.53 2.53 2.22 2.04 1.80 1.83 1.79 1.78 1.79 1.81 1.71 1.87 1.84 1.80 1.78 1.76 1.78 1.87 1.97 1.97 2.14 2.40 2.58 2.74 2.83 2.82 2.67 2.37 2.15 2.12 2.07 1.84 1.76 1.68 1.51 1.48 1.56 1.43
2.69 2.59 2.43 2.42 2.41 2.37 2.44 2.10 1.95 1.75 1.76 1.76 1.81 1.80 1.80 1.70 1.73 1.66 1.59 1.70 1.68 1.71 1.81 1.82 1.81 1.81 1.89 2.22 2.62 2.48 2.53 2.60 2.36 2.04 1.84 1.95 1.93 1.96 1.81 1.45 1.30 1.30 1.28